Location: ?????????
(41.1143°N, 22.7905°E)
Time: 15:03:53
(UTC+00:00)

Cosmos 2369 - Pass Details

Date: 13 December 2025
Orbit: 839 x 854 km, 71.0° (Epoch: 19 January)

Event Time Altitude Azimuth Distance (km) Brightness Sun altitude
Rises 16:11:15 0° 187° (S) 3,403 7.2 -12.9°
Reaches altitude 10° 16:13:45 10° 182° (S) 2,473 6.4 -13.3°
Maximum altitude 16:19:14 52° 108° (ESE) 1,059 3.9 -14.3°
Enters shadow 16:23:41 16° 37° (NE) 2,105 5.3 -15.1°
